Location: *
(48.8780°N, 19.2358°E)
Time: 17:34:16
(UTC+00:00)

Cosmos 2084 Rocket - Pass Details

Date: 18 October 2019
Orbit: 572 x 609 km, 62.8° (Epoch: 18 November)

Event Time Altitude Azimuth Distance (km) Brightness Sun altitude
Rises 18:04:27 0° 317° (NW) 2,875 7.8 -23.0°
Reaches altitude 10° 18:06:44 10° 318° (NW) 1,964 6.8 -23.4°
Enters shadow 18:11:03 84° 347° (NNW) 613 3.4 -24.1°
